Mount Holly, NJ

5:49 AM EDT on October 15, 2019 (GMT -0400)
South Jersey Regional

Weather History for KVAY - August, 2019

Change the Weather History Date:

Wednesday, August 14, 2019

  Actual Average (WUND) Record (WUND)
Temperature  
Mean Temperature 75 °F -  
Max Temperature 80 °F - - (-1)
Min Temperature 71 °F - - (-1)
Cooling Degree Days 10    
Growing Degree Days 25 (Base 50)    
Moisture  
Dew Point 72 °F    
Average Humidity 92    
Maximum Humidity 96    
Minimum Humidity 79    
Precipitation  
Precipitation 0.04 in - - ()
Sea Level Pressure  
Sea Level Pressure 29.80 in    
Wind  
Wind Speed 1 mph (NNE)    
Max Wind Speed 7 mph    
Max Gust Speed -    
Visibility 4 miles    
Events Fog , Rain    
Averages and records for this station are not official NWS values.
T = Trace of Precipitation, MM = Missing Value Source: NWS Daily Summary

Daily Weather History Graph

Daily Weather History Graph

Search for Another Location

Airport or City:

Astronomy

Aug. 14, 2019 Rise Set
Actual Time 6:09 AM EDT 7:57 PM EDT
Civil Twilight 5:40 AM EDT 8:26 PM EDT
Nautical Twilight 5:05 AM EDT 9:01 PM EDT
Astronomical Twilight 4:27 AM EDT 9:39 PM EDT
Moon 7:50 PM EDT (8/14) 5:05 AM EDT (8/14)
Length of Visible Light 14h 45m
Length of Day
13h 47m
Waxing Gibbous, 99% of the Moon is Illuminated
Aug 14
Waxing Gibbous
Aug 15
Full
Aug 23
Last Quarter
Aug 30
New
Sep 5
First Quarter

Hourly Weather History & Observations

Time (EDT) Temp. Dew Point Humidity Pressure Visibility Wind Dir Wind Speed Gust Speed Precip Events Conditions
12:06 AM 73.0 °F 72.0 °F 96% 29.78 in 2.0 mi Calm Calm - N/A   Overcast
12:17 AM 73.0 °F 72.0 °F 96% 29.78 in 3.0 mi Calm Calm - N/A   Overcast
12:30 AM 73.0 °F 72.0 °F 96% 29.78 in 2.5 mi Calm Calm - N/A   Overcast
12:54 AM 73.0 °F 72.0 °F 96% 29.77 in 2.5 mi Calm Calm - N/A   Overcast
1:20 AM 73.0 °F 72.0 °F 96% 29.77 in 1.0 mi Calm Calm - N/A   Overcast
1:29 AM 73.0 °F 72.0 °F 96% 29.77 in 0.5 mi Calm Calm - N/A Fog Fog
1:38 AM 73.0 °F 72.0 °F 96% 29.77 in 0.5 mi Calm Calm - N/A Fog Fog
1:54 AM 73.0 °F 72.0 °F 96% 29.76 in 0.8 mi Calm Calm - N/A   Overcast
1:58 AM 73.0 °F 72.0 °F 96% 29.76 in 1.2 mi Calm Calm - N/A   Overcast
2:36 AM 73.0 °F 72.0 °F 96% 29.76 in 2.0 mi Calm Calm - N/A   Overcast
2:47 AM 73.0 °F 72.0 °F 96% 29.76 in 1.8 mi Calm Calm - N/A   Overcast
2:54 AM 73.0 °F 72.0 °F 96% 29.75 in 2.0 mi Calm Calm - N/A   Overcast
3:19 AM 73.0 °F 71.1 °F 93% 29.76 in 1.2 mi Calm Calm - N/A   Mist
3:25 AM 73.0 °F 71.1 °F 93% 29.76 in 0.8 mi Calm Calm - N/A   Mist
3:39 AM 73.0 °F 72.0 °F 96% 29.76 in 1.2 mi Calm Calm - N/A   Mist
3:54 AM 73.0 °F 72.0 °F 96% 29.76 in 1.8 mi Calm Calm - N/A   Mist
4:10 AM 73.0 °F 72.0 °F 96% 29.76 in 2.0 mi Calm Calm - N/A   Mist
4:51 AM 73.4 °F 71.6 °F 94% 29.76 in 1.8 mi Calm Calm - N/A   Overcast
4:54 AM 73.0 °F 72.0 °F 96% 29.76 in 2.0 mi Calm Calm - N/A   Overcast
5:15 AM 73.0 °F 72.0 °F 96% 29.76 in 1.8 mi Calm Calm - N/A   Mostly Cloudy
5:21 AM 73.0 °F 72.0 °F 96% 29.76 in 0.8 mi NNE 3.5 mph - N/A   Mist
5:50 AM 73.4 °F 71.6 °F 94% 29.76 in 1.2 mi Calm Calm - N/A   Mist
5:54 AM 73.0 °F 72.0 °F 96% 29.77 in 1.8 mi Calm Calm - N/A   Mist
6:16 AM 73.0 °F 72.0 °F 96% 29.78 in 2.5 mi Calm Calm - N/A   Mist
6:23 AM 73.0 °F 72.0 °F 96% 29.78 in 3.0 mi Calm Calm - N/A   Overcast
6:32 AM 73.0 °F 71.1 °F 93% 29.78 in 2.5 mi Calm Calm - N/A   Overcast
6:45 AM 73.0 °F 71.1 °F 93% 29.78 in 3.0 mi Calm Calm - N/A   Overcast
6:54 AM 73.0 °F 70.0 °F 90% 29.78 in 4.0 mi NNE 3.5 mph - N/A   Mostly Cloudy
7:54 AM 73.9 °F 72.0 °F 93% 29.80 in 3.0 mi Calm Calm - N/A   Mist
8:27 AM 75.0 °F 71.1 °F 87% 29.80 in 7.0 mi Calm Calm - N/A   Overcast
8:54 AM 75.9 °F 72.0 °F 87% 29.80 in 8.0 mi Calm Calm - N/A   Overcast
11:54 AM 75.9 °F 72.0 °F 87% 29.81 in 7.0 mi ENE 3.5 mph - 0.00 in Rain Light Rain
12:07 PM 78.1 °F 73.0 °F 84% 29.81 in 7.0 mi North 4.6 mph - 0.00 in   Overcast
12:26 PM 79.0 °F 73.0 °F 82% 29.81 in 10.0 mi Variable 4.6 mph - 0.00 in   Overcast
12:41 PM 78.1 °F 71.1 °F 79% 29.82 in 10.0 mi Variable 3.5 mph - 0.00 in   Overcast
12:54 PM 78.1 °F 72.0 °F 81% 29.82 in 8.0 mi North 4.6 mph - 0.00 in   Overcast
1:28 PM 75.9 °F 73.0 °F 91% 29.82 in 2.5 mi NNW 4.6 mph - 0.02 in Rain Light Rain
1:46 PM 75.9 °F 73.0 °F 91% 29.82 in 4.0 mi NNE 4.6 mph - 0.03 in   Overcast
1:54 PM 75.9 °F 73.0 °F 91% 29.82 in 5.0 mi NE 4.6 mph - 0.03 in   Overcast
2:38 PM 75.9 °F 73.0 °F 91% 29.82 in 3.0 mi Variable 4.6 mph - 0.00 in Rain Light Rain
2:46 PM 75.9 °F 73.0 °F 91% 29.82 in 3.0 mi NE 6.9 mph - 0.00 in Rain Light Rain
2:54 PM 75.9 °F 73.0 °F 91% 29.83 in 4.0 mi Variable 3.5 mph - 0.00 in   Overcast
3:09 PM 75.9 °F 72.0 °F 87% 29.83 in 4.0 mi Variable 3.5 mph - N/A   Overcast
3:54 PM 75.9 °F 72.0 °F 87% 29.83 in 6.0 mi East 4.6 mph - N/A   Overcast
4:54 PM 77.0 °F 72.0 °F 84% 29.84 in 8.0 mi Calm Calm - N/A   Overcast
5:54 PM 78.1 °F 71.1 °F 79% 29.84 in 10.0 mi Variable 3.5 mph - N/A   Mostly Cloudy
6:54 PM 78.1 °F 72.0 °F 81% 29.85 in 9.0 mi Variable 4.6 mph - N/A   Partly Cloudy
7:54 PM 73.9 °F 71.1 °F 91% 29.85 in 5.0 mi Variable 3.5 mph - N/A   Clear
8:54 PM 73.0 °F 70.0 °F 90% 29.88 in 5.0 mi Calm Calm - N/A   Clear
9:54 PM 72.0 °F 70.0 °F 93% 29.91 in 4.0 mi Calm Calm - N/A   Clear
10:54 PM 72.0 °F 70.0 °F 93% 29.92 in 3.0 mi Calm Calm - 0.01 in   Mostly Cloudy
11:15 PM 72.0 °F 70.0 °F 93% 29.92 in 2.0 mi Calm Calm - N/A   Clear
11:25 PM 71.1 °F 70.0 °F 96% 29.92 in 1.8 mi Calm Calm - N/A   Clear
11:54 PM 71.1 °F 70.0 °F 96% 29.93 in 1.5 mi Calm Calm - N/A   Clear